[[{"header":{"parameterUnit":"m.s-1","parameterCategory":1,"la1":30.2992,"la2":30.254,"lo1":-89.0895,"lo2":-89.0443,"dy":0.0025,"dx":0.0025,"nx":19,"ny":19,"refTime":"2026-03-27T03:00:00:Z","depth":0,"parameterNumber":2,"parameterNumberName":"U-component_of_WINDS"},"data":[0,0,0,-3.0427,-3.0429,-3.0492,-3.0492,-3.0581,-3.0582,0,0,0,0,0,0,0,0,0,0,0,-3.0415,-3.0415,-3.0427,-3.0429,-3.0492,-3.0492,-3.0581,-3.0582,0,0,0,0,0,0,0,0,0,0,0,-3.0414,-3.0415,-3.0416,-3.0429,-3.0492,-3.0492,-3.0581,-3.053,0,0,0,0,0,0,0,0,0,0,-3.0467,-3.0462,-3.0415,-3.0416,-3.0429,-3.0492,-3.0492,-3.0527,-3.0533,-3.0556,0,-3.058,0,-3.0583,-3.0589,-3.0589,0,0,0,-3.0424,-3.0457,-3.0469,-3.0416,-3.043,-3.0492,-3.0462,-3.053,-3.0537,-3.0564,-3.0581,-3.0584,-3.0584,-3.0589,-3.059,-3.0744,-3.0745,0,0,-3.042,-3.0429,-3.0464,-3.0473,-3.0465,-3.046,-3.0464,-3.0534,-3.0553,-3.0581,-3.0586,-3.0586,-3.059,-3.0591,-3.0743,-3.0744,0,0,0,-3.0414,-3.0427,-3.0436,-3.047,-3.0481,-3.0462,-3.0467,-3.055,-3.0552,-3.0587,-3.0587,-3.0591,-3.0592,-3.0742,-3.0743,-3.08,0,0,0,-3.0411,-3.0423,-3.0435,-3.0441,-3.048,-3.0516,-3.0481,-3.0547,-3.0555,-3.0586,-3.0591,-3.0593,-3.0741,-3.0743,-3.0796,-3.0826,0,0,0,-3.0408,-3.0422,-3.0434,-3.0441,-3.0469,-3.0515,-3.0521,-3.0549,-3.0555,-3.0589,-3.0593,-3.074,-3.0742,-3.0793,-3.082,-3.0869,0,0,0,-3.0407,-3.0482,-3.0435,-3.0518,-3.0469,-3.055,-3.0521,-3.058,-3.0616,-3.0591,-3.0741,-3.0743,-3.0792,-3.0816,-3.0866,-3.0914,-3.0934,0,0,-3.0507,-3.0495,-3.0543,-3.0502,-3.0594,-3.0539,-3.0639,-3.0663,-3.0657,-3.0715,-3.0719,-3.0798,-3.082,-3.0869,-3.1044,-3.106,0,0,0,-3.0578,-3.0613,-3.0635,-3.067,-3.0691,-3.0711,-3.0719,-3.0728,-3.0777,-3.0689,-3.0828,-3.0841,-3.0869,-3.0892,-3.0905,-3.093,-3.0754,-3.0753,-3.0753,-3.0731,-3.0721,-3.0801,-3.0798,-3.0833,-3.084,-3.0867,-3.088,-3.0858,-3.0891,-3.0909,-3.1017,-3.1043,-3.1053,-3.1079,-3.0932,-3.0932,-3.0933,-3.0933,-3.0877,-3.0926,-3.0896,-3.0963,-3.0951,-3.1007,-3.1016,-3.0999,-3.1049,-3.1002,-3.1027,-3.0978,-3.1072,-3.1093,-3.0937,-3.0936,-3.0936,-3.0935,-3.0935,-3.0978,-3.1,-3.1009,-3.106,-3.1099,-3.1092,-3.1142,-3.1129,-3.1116,-3.1141,-3.1158,-3.1157,-3.1155,-3.115,-3.115,-3.115,-3.1151,-3.1151,-3.1151,-3.1079,-3.1088,-3.1132,-3.1161,-3.1182,-3.1207,-3.1215,-3.1235,-3.1253,-3.124,-3.124,-3.1216,-3.1083,-3.105,-3.1157,-3.1156,-3.1155,-3.1155,-3.1154,-3.1233,-3.1196,-3.1264,-3.1285,-3.1317,-3.1357,-3.1339,-3.1381,-3.1395,-3.142,-3.139,-3.1293,-3.128,-3.1269,-3.1242,-3.1392,-3.1392,-3.1392,-3.1392,-3.1319,-3.1311,-3.1377,-3.1412,-3.1444,-3.1435,-3.1511,-3.1517,-3.1518,-3.1526,-3.1501,-3.1464,-3.1453,-3.1446,-3.1431,-3.1406,-3.1594,-3.1594,-3.1594,-3.1413,-3.1408,-3.1476,-3.1477,-3.1501,-3.1521,-3.1592,-3.1632,-3.1625,-3.1602,-3.1532,-3.1523,-3.1463,-3.1443,-3.1421,-3.1398,-3.1351,0,0]},{"header":{"parameterUnit":"m.s-1","parameterCategory":1,"la1":30.2992,"la2":30.254,"lo1":-89.0895,"lo2":-89.0443,"dy":0.0025,"dx":0.0025,"nx":19,"ny":19,"refTime":"2026-03-27T03:00:00:Z","depth":0,"parameterNumber":3,"parameterNumberName":"V-component_of_WINDS"},"data":[0,0,0,-8.7497,-8.75,-8.7662,-8.7663,-8.7877,-8.7879,0,0,0,0,0,0,0,0,0,0,0,-8.7457,-8.7459,-8.7496,-8.7501,-8.7662,-8.7663,-8.7877,-8.7879,0,0,0,0,0,0,0,0,0,0,0,-8.7457,-8.7459,-8.7461,-8.7501,-8.7662,-8.7663,-8.7876,-8.775,0,0,0,0,0,0,0,0,0,0,-8.7592,-8.7565,-8.7458,-8.7461,-8.7502,-8.7662,-8.7663,-8.7744,-8.7758,-8.7809,0,-8.7859,0,-8.7873,-8.7894,-8.7895,0,0,0,-8.7493,-8.7554,-8.759,-8.7461,-8.7504,-8.7662,-8.7587,-8.7752,-8.7768,-8.7827,-8.7862,-8.787,-8.7877,-8.7896,-8.7897,-8.8223,-8.8225,0,0,-8.7484,-8.749,-8.7579,-8.7601,-8.7581,-8.7582,-8.7592,-8.7761,-8.7798,-8.7863,-8.7874,-8.788,-8.7897,-8.7899,-8.8222,-8.8224,0,0,0,-8.7464,-8.7484,-8.7516,-8.7592,-8.7621,-8.7587,-8.7599,-8.779,-8.7801,-8.7877,-8.7883,-8.7899,-8.7901,-8.822,-8.8222,-8.8325,0,0,0,-8.7458,-8.7472,-8.7513,-8.7518,-8.7618,-8.7709,-8.7624,-8.7789,-8.7808,-8.7882,-8.7899,-8.7904,-8.8217,-8.8221,-8.8317,-8.8371,0,0,0,-8.7444,-8.747,-8.7497,-8.7518,-8.7588,-8.7706,-8.7725,-8.7793,-8.7812,-8.7895,-8.7904,-8.8216,-8.822,-8.8311,-8.8361,-8.8461,0,0,0,-8.7429,-8.7583,-8.7499,-8.7672,-8.7587,-8.7769,-8.7724,-8.7858,-8.7942,-8.79,-8.8218,-8.8222,-8.8309,-8.8354,-8.8454,-8.8547,-8.8587,0,0,-8.7626,-8.7606,-8.7708,-8.7638,-8.7838,-8.7744,-8.7957,-8.8025,-8.8024,-8.8156,-8.8164,-8.832,-8.836,-8.8459,-8.8804,-8.8835,0,0,0,-8.7772,-8.7845,-8.7897,-8.798,-8.8039,-8.8093,-8.8129,-8.8154,-8.8267,-8.8095,-8.8382,-8.8406,-8.8464,-8.8508,-8.8535,-8.8584,-8.8243,-8.8242,-8.8242,-8.8058,-8.8054,-8.8222,-8.8238,-8.8318,-8.8355,-8.8419,-8.8459,-8.8427,-8.8495,-8.8534,-8.8744,-8.8797,-8.8817,-8.8869,-8.8582,-8.8583,-8.8583,-8.8583,-8.8346,-8.845,-8.8409,-8.8557,-8.8551,-8.8673,-8.8714,-8.8689,-8.88,-8.8714,-8.8764,-8.8671,-8.8851,-8.8896,-8.8591,-8.859,-8.8589,-8.8588,-8.8587,-8.8534,-8.8583,-8.8615,-8.8736,-8.8828,-8.8837,-8.8948,-8.8936,-8.8925,-8.8975,-8.9016,-8.9015,-8.9012,-8.8996,-8.8996,-8.8997,-8.8998,-8.8998,-8.8999,-8.8717,-8.8749,-8.8847,-8.8925,-8.8978,-8.9045,-8.9085,-8.9134,-8.9186,-8.9169,-8.9169,-8.9131,-8.887,-8.8806,-8.901,-8.9008,-8.9007,-8.9006,-8.9005,-8.9012,-8.8945,-8.9095,-8.9149,-8.924,-8.9333,-8.9318,-8.9421,-8.946,-8.9515,-8.9467,-8.9276,-8.9254,-8.9232,-8.9179,-8.9468,-8.9468,-8.9468,-8.9468,-8.9172,-8.9161,-8.9314,-8.94,-8.9483,-8.9485,-8.9653,-8.9685,-8.9707,-8.973,-8.9686,-8.9614,-8.9593,-8.9583,-8.9554,-8.9504,-8.9869,-8.9869,-8.987,-8.9354,-8.9351,-8.9498,-8.9523,-8.9594,-8.9654,-8.9812,-8.991,-8.9919,-8.9886,-8.9749,-8.9732,-8.9615,-8.9577,-8.954,-8.9496,-8.9403,0,0]}]]